This is the latest recevied weather packets stored in our database for station/object SP8EBC-11. If no packets are shown the sender has not sent any weather packets the latest 1 day(s).
| Time | Temp. | Humidity | Pressure | Rain* | Wind** | Luminosity | Snow |
|---|---|---|---|---|---|---|---|
| 1778008214 | 16.11° C | 68% | 991.3 hPa | - | 3.58 m/s, 30° | - | - |
| 1778008094 | 16.11° C | 68% | 991.2 hPa | - | 4.02 m/s, 35° | - | - |
| 1778007974 | 16.11° C | 68% | 991.2 hPa | - | 3.58 m/s, 31° | - | - |
| 1778007854 | 16.11° C | 68% | 991.2 hPa | - | 3.13 m/s, 22° | - | - |
| 1778007734 | 16.11° C | 68% | 991.2 hPa | - | 3.58 m/s, 29° | - | - |
| 1778007614 | 16.67° C | 67% | 991.2 hPa | - | 4.02 m/s, 27° | - | - |
| 1778007494 | 16.67° C | 67% | 991.2 hPa | - | 3.13 m/s, 20° | - | - |
| 1778007374 | 16.67° C | 67% | 991.2 hPa | - | 3.13 m/s, 27° | - | - |
| 1778007254 | 16.67° C | 67% | 991.1 hPa | - | 3.13 m/s, 30° | - | - |
| 1778007134 | 16.67° C | 67% | 991.1 hPa | - | 3.13 m/s, 32° | - | - |
| 1778007014 | 16.67° C | 67% | 991.2 hPa | - | 3.13 m/s, 29° | - | - |
| 1778006893 | 16.67° C | 66% | 991.1 hPa | - | 3.58 m/s, 22° | - | - |
| 1778006774 | 16.67° C | 66% | 991.1 hPa | - | 3.58 m/s, 26° | - | - |
| 1778006653 | 16.67° C | 66% | 991.2 hPa | - | 3.13 m/s, 29° | - | - |
| 1778006533 | 16.67° C | 66% | 991.2 hPa | - | 2.68 m/s, 32° | - | - |
| 1778006413 | 16.67° C | 66% | 991.2 hPa | - | 2.24 m/s, 35° | - | - |
| 1778006293 | 16.67° C | 66% | 991.1 hPa | - | 2.24 m/s, 39° | - | - |
| 1778006174 | 16.67° C | 66% | 991.1 hPa | - | 1.79 m/s, 41° | - | - |
| 1778006053 | 16.67° C | 66% | 991.1 hPa | - | 2.24 m/s, 33° | - | - |
| 1778005933 | 17.22° C | 66% | 991 hPa | - | 2.24 m/s, 31° | - | - |
| 1778005813 | 17.22° C | 66% | 991 hPa | - | 2.24 m/s, 32° | - | - |
| 1778005693 | 17.22° C | 66% | 991 hPa | - | 2.24 m/s, 33° | - | - |
| 1778005572 | 17.22° C | 65% | 991 hPa | - | 2.24 m/s, 38° | - | - |
| 1778005453 | 17.22° C | 65% | 990.9 hPa | - | 1.79 m/s, 49° | - | - |
| 1778005333 | 17.22° C | 65% | 990.9 hPa | - | 2.24 m/s, 48° | - | - |
* Rain since midnight (hover to see other rain measurements)
** Current wind speed in m/s (hover to see current wind gust speed)